Time,TemperatureF,DewpointF,PressureIn,WindDirection,WindDirectionDegrees,WindSpeedMPH,WindSpeedGustMPH,Humidity,HourlyPrecipIn,Conditions,Clouds,dailyrainin,SolarRadiationWatts/m^2,SoftwareType,DateUTC
2013-05-06 00:02:00,41.0,36.0,-100.00,NNE,33,3.0,6.0,81,0.00,,,0.00,0.000000,,2013-05-06 04:02:00,
2013-05-06 00:23:00,39.0,36.0,-100.00,NNE,28,4.0,6.0,88,0.00,,,0.00,0.000000,,2013-05-06 04:23:00,
2013-05-06 00:32:00,39.0,36.0,-100.00,NNE,28,4.0,6.0,88,0.00,,,0.00,0.000000,,2013-05-06 04:32:00,
2013-05-06 00:43:00,39.0,36.0,-100.00,NNE,28,4.0,6.0,88,0.00,,,0.00,0.000000,,2013-05-06 04:43:00,
2013-05-06 00:53:00,39.0,36.0,-100.00,NNE,28,4.0,6.0,88,0.00,,,0.00,0.000000,,2013-05-06 04:53:00,
2013-05-06 01:02:00,39.0,36.0,-100.00,NNE,28,4.0,6.0,88,0.00,,,0.00,0.000000,,2013-05-06 05:02:00,
2013-05-06 01:32:00,38.0,36.0,-100.00,NNE,32,5.0,8.0,91,0.00,,,0.00,0.000000,,2013-05-06 05:32:00,
2013-05-06 01:42:00,38.0,36.0,-100.00,NNE,32,5.0,8.0,91,0.00,,,0.00,0.000000,,2013-05-06 05:42:00,
2013-05-06 01:52:00,38.0,36.0,-100.00,NNE,32,5.0,8.0,91,0.00,,,0.00,0.000000,,2013-05-06 05:52:00,
2013-05-06 02:02:00,38.0,36.0,-100.00,NNE,32,5.0,8.0,91,0.00,,,0.00,0.000000,,2013-05-06 06:02:00,
2013-05-06 02:22:00,37.0,35.0,-100.00,NNE,28,4.0,7.0,93,0.00,,,0.00,0.000000,,2013-05-06 06:22:00,
2013-05-06 02:32:00,37.0,35.0,-100.00,NNE,28,4.0,7.0,93,0.00,,,0.00,0.000000,,2013-05-06 06:32:00,
2013-05-06 02:42:00,37.0,35.0,-100.00,NNE,28,4.0,7.0,93,0.00,,,0.00,0.000000,,2013-05-06 06:42:00,
2013-05-06 02:52:00,37.0,35.0,-100.00,NNE,28,4.0,7.0,93,0.00,,,0.00,0.000000,,2013-05-06 06:52:00,
2013-05-06 03:01:00,37.0,35.0,-100.00,NNE,28,4.0,7.0,93,0.00,,,0.00,0.000000,,2013-05-06 07:01:00,
2013-05-06 03:32:00,36.0,35.0,-100.00,NE,35,3.0,6.0,95,0.00,,,0.00,0.000000,,2013-05-06 07:32:00,
2013-05-06 03:42:00,36.0,35.0,-100.00,NE,35,3.0,6.0,95,0.00,,,0.00,0.000000,,2013-05-06 07:42:00,
2013-05-06 03:52:00,36.0,35.0,-100.00,NE,35,3.0,6.0,95,0.00,,,0.00,0.000000,,2013-05-06 07:52:00,
2013-05-06 04:02:00,36.0,35.0,-100.00,NE,35,3.0,6.0,95,0.00,,,0.00,0.000000,,2013-05-06 08:02:00,
2013-05-06 04:32:00,35.0,34.0,-100.00,NE,37,3.0,4.0,96,0.00,,,0.00,0.000000,,2013-05-06 08:32:00,
2013-05-06 04:42:00,35.0,34.0,-100.00,NE,37,3.0,4.0,96,0.00,,,0.00,0.000000,,2013-05-06 08:42:00,
2013-05-06 04:52:00,35.0,34.0,-100.00,NE,37,3.0,4.0,96,0.00,,,0.00,0.000000,,2013-05-06 08:52:00,
2013-05-06 05:02:00,35.0,34.0,-100.00,NE,37,3.0,4.0,96,0.00,,,0.00,0.000000,,2013-05-06 09:02:00,
2013-05-06 05:33:00,34.0,33.0,-100.00,NNE,16,1.0,4.0,96,0.00,,,0.00,0.000000,,2013-05-06 09:33:00,
2013-05-06 05:43:00,34.0,33.0,-100.00,NNE,16,1.0,4.0,96,0.00,,,0.00,0.000000,,2013-05-06 09:43:00,
2013-05-06 05:53:00,34.0,33.0,-100.00,NNE,16,1.0,4.0,96,0.00,,,0.00,0.000000,,2013-05-06 09:53:00,
2013-05-06 06:03:00,34.0,33.0,-100.00,NNE,16,1.0,4.0,96,0.00,,,0.00,0.000000,,2013-05-06 10:03:00,
2013-05-06 06:22:00,33.0,32.0,-100.00,NNE,21,2.0,4.0,97,0.00,,,0.00,0.000000,,2013-05-06 10:22:00,
2013-05-06 06:33:00,33.0,32.0,-100.00,NNE,21,2.0,4.0,97,0.00,,,0.00,0.000000,,2013-05-06 10:33:00,
2013-05-06 06:42:00,33.0,32.0,-100.00,NNE,21,2.0,4.0,97,0.00,,,0.00,0.000000,,2013-05-06 10:42:00,
2013-05-06 06:52:00,33.0,32.0,-100.00,NNE,21,2.0,4.0,97,0.00,,,0.00,0.000000,,2013-05-06 10:52:00,
2013-05-06 07:02:00,33.0,32.0,-100.00,NNE,21,2.0,4.0,97,0.00,,,0.00,0.000000,,2013-05-06 11:02:00,
2013-05-06 07:22:00,33.0,32.0,-100.00,NE,46,2.0,5.0,97,0.00,,,0.00,15.000000,,2013-05-06 11:22:00,
2013-05-06 07:32:00,33.0,32.0,-100.00,NE,46,2.0,5.0,97,0.00,,,0.00,15.000000,,2013-05-06 11:32:00,
2013-05-06 07:42:00,33.0,32.0,-100.00,NE,46,2.0,5.0,97,0.00,,,0.00,15.000000,,2013-05-06 11:42:00,
2013-05-06 07:52:00,33.0,32.0,-100.00,NE,46,2.0,5.0,97,0.00,,,0.00,15.000000,,2013-05-06 11:52:00,
2013-05-06 08:02:00,33.0,32.0,-100.00,NE,46,2.0,5.0,97,0.00,,,0.00,15.000000,,2013-05-06 12:02:00,
2013-05-06 08:32:00,43.0,42.0,-100.00,NNE,19,4.0,6.0,96,0.00,,,0.00,126.000000,,2013-05-06 12:32:00,
2013-05-06 08:42:00,43.0,42.0,-100.00,NNE,19,4.0,6.0,96,0.00,,,0.00,126.000000,,2013-05-06 12:42:00,
2013-05-06 08:52:00,43.0,42.0,-100.00,NNE,19,4.0,6.0,96,0.00,,,0.00,126.000000,,2013-05-06 12:52:00,
2013-05-06 09:01:00,43.0,42.0,-100.00,NNE,19,4.0,6.0,96,0.00,,,0.00,126.000000,,2013-05-06 13:01:00,
2013-05-06 10:32:00,61.0,44.0,-100.00,NW,320,2.0,4.0,53,-99.99,,,0.00,552.000000,,2013-05-06 14:32:00,
2013-05-06 10:42:00,61.0,44.0,-100.00,NW,320,2.0,4.0,53,-99.99,,,0.00,552.000000,,2013-05-06 14:42:00,
2013-05-06 10:52:00,61.0,44.0,-100.00,NW,320,2.0,4.0,53,-99.99,,,0.00,552.000000,,2013-05-06 14:52:00,
2013-05-06 11:01:00,61.0,44.0,-100.00,NW,320,2.0,4.0,53,-99.99,,,0.00,552.000000,,2013-05-06 15:01:00,
2013-05-06 11:33:00,66.0,42.0,-100.00,SSW,211,3.0,6.0,42,0.00,,,0.00,747.000000,,2013-05-06 15:33:00,
2013-05-06 11:43:00,66.0,42.0,-100.00,SSW,211,3.0,6.0,42,0.00,,,0.00,747.000000,,2013-05-06 15:43:00,
2013-05-06 11:53:00,66.0,42.0,-100.00,SSW,211,3.0,6.0,42,0.00,,,0.00,747.000000,,2013-05-06 15:53:00,
2013-05-06 12:03:00,66.0,42.0,-100.00,SSW,211,3.0,6.0,42,0.00,,,0.00,747.000000,,2013-05-06 16:03:00,
2013-05-06 12:23:00,66.0,41.0,-100.00,NNE,14,7.0,10.0,40,0.00,,,0.00,902.000000,,2013-05-06 16:23:00,
2013-05-06 12:33:00,66.0,41.0,-100.00,NNE,14,7.0,10.0,40,0.00,,,0.00,902.000000,,2013-05-06 16:33:00,
2013-05-06 12:42:00,66.0,41.0,-100.00,NNE,14,7.0,10.0,40,0.00,,,0.00,902.000000,,2013-05-06 16:42:00,
2013-05-06 12:52:00,66.0,41.0,-100.00,NNE,14,7.0,10.0,40,0.00,,,0.00,902.000000,,2013-05-06 16:52:00,
2013-05-06 13:03:00,66.0,41.0,-100.00,NNE,14,7.0,10.0,40,0.00,,,0.00,902.000000,,2013-05-06 17:03:00,
2013-05-06 14:22:00,67.0,39.0,-100.00,NNE,15,9.0,14.0,36,-99.99,,,0.00,1037.000000,,2013-05-06 18:22:00,
2013-05-06 14:32:00,67.0,39.0,-100.00,NNE,15,9.0,14.0,36,-99.99,,,0.00,1037.000000,,2013-05-06 18:32:00,
2013-05-06 14:43:00,67.0,39.0,-100.00,NNE,15,9.0,14.0,36,-99.99,,,0.00,1037.000000,,2013-05-06 18:43:00,
2013-05-06 14:52:00,67.0,39.0,-100.00,NNE,15,9.0,14.0,36,-99.99,,,0.00,1037.000000,,2013-05-06 18:52:00,
2013-05-06 15:01:00,67.0,39.0,-100.00,NNE,15,9.0,14.0,36,-99.99,,,0.00,1037.000000,,2013-05-06 19:01:00,
2013-05-06 15:22:00,64.0,39.0,-100.00,North,3,9.0,16.0,39,0.00,,,0.00,989.000000,,2013-05-06 19:22:00,
2013-05-06 15:32:00,64.0,39.0,-100.00,North,3,9.0,16.0,39,0.00,,,0.00,989.000000,,2013-05-06 19:32:00,
2013-05-06 15:42:00,64.0,39.0,-100.00,North,3,9.0,16.0,39,0.00,,,0.00,989.000000,,2013-05-06 19:42:00,
2013-05-06 15:52:00,64.0,39.0,-100.00,North,3,9.0,16.0,39,0.00,,,0.00,989.000000,,2013-05-06 19:52:00,
2013-05-06 16:02:00,64.0,39.0,-100.00,North,3,9.0,16.0,39,0.00,,,0.00,989.000000,,2013-05-06 20:02:00,
2013-05-06 16:32:00,63.0,38.0,-100.00,NNE,18,8.0,14.0,40,0.00,,,0.00,929.000000,,2013-05-06 20:32:00,
2013-05-06 16:42:00,63.0,38.0,-100.00,NNE,18,8.0,14.0,40,0.00,,,0.00,929.000000,,2013-05-06 20:42:00,
2013-05-06 16:52:00,63.0,38.0,-100.00,NNE,18,8.0,14.0,40,0.00,,,0.00,929.000000,,2013-05-06 20:52:00,
2013-05-06 17:01:00,63.0,38.0,-100.00,NNE,18,8.0,14.0,40,0.00,,,0.00,929.000000,,2013-05-06 21:01:00,
2013-05-06 17:22:00,61.0,37.0,-100.00,NNE,12,9.0,14.0,41,0.00,,,-99.99,795.000000,,2013-05-06 21:22:00,
2013-05-06 17:33:00,61.0,37.0,-100.00,NNE,12,9.0,14.0,41,0.00,,,-99.99,795.000000,,2013-05-06 21:33:00,
2013-05-06 17:43:00,61.0,37.0,-100.00,NNE,12,9.0,14.0,41,0.00,,,-99.99,795.000000,,2013-05-06 21:43:00,
2013-05-06 17:53:00,61.0,37.0,-100.00,NNE,12,9.0,14.0,41,0.00,,,-99.99,795.000000,,2013-05-06 21:53:00,
2013-05-06 18:03:00,61.0,37.0,-100.00,NNE,12,9.0,14.0,41,0.00,,,-99.99,795.000000,,2013-05-06 22:03:00,
2013-05-06 18:22:00,60.0,35.0,-100.00,North,4,9.0,14.0,39,0.00,,,0.00,297.000000,,2013-05-06 22:22:00,
2013-05-06 18:33:00,60.0,35.0,-100.00,North,4,9.0,14.0,39,0.00,,,0.00,297.000000,,2013-05-06 22:33:00,
2013-05-06 18:45:00,60.0,35.0,-100.00,North,4,9.0,14.0,39,0.00,,,0.00,297.000000,,2013-05-06 22:45:00,
2013-05-06 18:52:00,60.0,35.0,-100.00,North,4,9.0,14.0,39,0.00,,,0.00,297.000000,,2013-05-06 22:52:00,
2013-05-06 19:03:00,60.0,35.0,-100.00,North,4,9.0,14.0,39,0.00,,,0.00,297.000000,,2013-05-06 23:03:00,
2013-05-06 19:22:00,58.0,36.0,-100.00,NNE,21,7.0,13.0,43,0.00,,,0.00,200.000000,,2013-05-06 23:22:00,
2013-05-06 19:32:00,58.0,36.0,-100.00,NNE,21,7.0,13.0,43,0.00,,,0.00,200.000000,,2013-05-06 23:32:00,
2013-05-06 19:42:00,58.0,36.0,-100.00,NNE,21,7.0,13.0,43,0.00,,,0.00,200.000000,,2013-05-06 23:42:00,
2013-05-06 19:52:00,58.0,36.0,-100.00,NNE,21,7.0,13.0,43,0.00,,,0.00,200.000000,,2013-05-06 23:52:00,
2013-05-06 20:01:00,58.0,36.0,-100.00,NNE,21,7.0,13.0,43,0.00,,,0.00,200.000000,,2013-05-07 00:01:00,
2013-05-06 20:32:00,50.0,37.0,-100.00,NNE,14,6.0,13.0,60,0.00,,,0.00,179.000000,,2013-05-07 00:32:00,
2013-05-06 20:42:00,50.0,37.0,-100.00,NNE,14,6.0,13.0,60,0.00,,,0.00,179.000000,,2013-05-07 00:42:00,
2013-05-06 20:52:00,50.0,37.0,-100.00,NNE,14,6.0,13.0,60,0.00,,,0.00,179.000000,,2013-05-07 00:52:00,
2013-05-06 21:01:00,50.0,37.0,-100.00,NNE,14,6.0,13.0,60,0.00,,,0.00,179.000000,,2013-05-07 01:01:00,
2013-05-06 21:21:00,45.0,36.0,-100.00,NE,53,2.0,9.0,71,0.00,,,0.00,30.000000,,2013-05-07 01:21:00,
2013-05-06 21:32:00,45.0,36.0,-100.00,NE,53,2.0,9.0,71,0.00,,,0.00,30.000000,,2013-05-07 01:32:00,
2013-05-06 21:42:00,45.0,36.0,-100.00,NE,53,2.0,9.0,71,0.00,,,0.00,30.000000,,2013-05-07 01:42:00,
2013-05-06 21:53:00,45.0,36.0,-100.00,NE,53,2.0,9.0,71,0.00,,,0.00,30.000000,,2013-05-07 01:53:00,
2013-05-06 22:02:00,45.0,36.0,-100.00,NE,53,2.0,9.0,71,0.00,,,0.00,30.000000,,2013-05-07 02:02:00,
2013-05-06 22:22:00,41.0,37.0,-100.00,WNW,297,0.0,3.0,84,0.00,,,0.00,0.000000,,2013-05-07 02:22:00,
2013-05-06 22:32:00,41.0,37.0,-100.00,WNW,297,0.0,3.0,84,0.00,,,0.00,0.000000,,2013-05-07 02:32:00,
2013-05-06 22:42:00,41.0,37.0,-100.00,WNW,297,0.0,3.0,84,0.00,,,0.00,0.000000,,2013-05-07 02:42:00,
2013-05-06 22:52:00,41.0,37.0,-100.00,WNW,297,0.0,3.0,84,0.00,,,0.00,0.000000,,2013-05-07 02:52:00,
2013-05-06 23:02:00,41.0,37.0,-100.00,WNW,297,0.0,3.0,84,0.00,,,0.00,0.000000,,2013-05-07 03:02:00,
2013-05-06 23:33:00,39.0,35.0,-100.00,North,4,1.0,3.0,86,0.00,,,0.00,0.000000,,2013-05-07 03:33:00,
2013-05-06 23:43:00,39.0,35.0,-100.00,North,4,1.0,3.0,86,0.00,,,0.00,0.000000,,2013-05-07 03:43:00,
2013-05-06 23:53:00,39.0,35.0,-100.00,North,4,1.0,3.0,86,0.00,,,0.00,0.000000,,2013-05-07 03:53:00,